This is the latest recevied weather packets stored in our database for station/object NO9B. If no packets are shown the sender has not sent any weather packets the latest 10 day(s).
| Time | Temp. | Humidity | Pressure | Rain* | Wind** | Luminosity | Snow |
|---|---|---|---|---|---|---|---|
| 1787530350 | 21.67° C | 59% | 1016.7 hPa | 0 mm | - | 6 W/m² | - |
| 1787530046 | 21.67° C | 59% | 1016.7 hPa | 0 mm | - | 7 W/m² | - |
| 1787529741 | 21.67° C | 60% | 1016.7 hPa | 0 mm | - | 8 W/m² | - |
| 1787529441 | 21.67° C | 57% | 1016.6 hPa | 0 mm | - | 9 W/m² | - |
| 1787529141 | 21.67° C | 59% | 1016.6 hPa | 0 mm | - | 10 W/m² | - |
| 1787528837 | 22.22° C | 60% | 1016.8 hPa | 0 mm | - | 11 W/m² | - |
| 1787528533 | 22.22° C | 59% | 1016.9 hPa | 0 mm | - | 12 W/m² | - |
| 1787528228 | 22.22° C | 56% | 1016.8 hPa | 0 mm | - | 12 W/m² | - |
| 1787527924 | 22.78° C | 54% | 1017 hPa | 0 mm | - | 13 W/m² | - |
| 1787527621 | 22.78° C | 54% | 1017 hPa | 0 mm | - | 15 W/m² | - |
| 1787527316 | 22.78° C | 54% | 1016.8 hPa | 0 mm | - | 15 W/m² | - |
| 1787527011 | 22.78° C | 52% | 1017 hPa | 0 mm | - | 16 W/m² | - |
| 1787526707 | 22.78° C | 54% | 1016.9 hPa | 0 mm | - | 17 W/m² | - |
| 1787526404 | 23.33° C | 54% | 1017 hPa | 0 mm | - | 18 W/m² | - |
| 1787526100 | 23.33° C | 53% | 1017 hPa | 0 mm | - | 19 W/m² | - |
| 1787525796 | 23.33° C | 50% | 1017.2 hPa | 0 mm | - | 20 W/m² | - |
| 1787525496 | 23.33° C | 52% | 1017 hPa | 0 mm | - | 22 W/m² | - |
| 1787525195 | 23.89° C | 50% | 1017.2 hPa | 0 mm | - | 23 W/m² | - |
| 1787524892 | 23.89° C | 52% | 1016.9 hPa | 0 mm | - | 22 W/m² | - |
| 1787524587 | 23.89° C | 50% | 1017.2 hPa | 0 mm | - | 23 W/m² | - |
| 1787524282 | 24.44° C | 50% | 1017.2 hPa | 0 mm | - | 26 W/m² | - |
| 1787523991 | 25° C | 47% | 1017 hPa | 0 mm | - | 52 W/m² | - |
| 1787523673 | 25° C | 48% | 1017.2 hPa | 0 mm | - | 188 W/m² | - |
| 1787523372 | 24.44° C | 53% | 1017.3 hPa | 0 mm | - | 194 W/m² | - |
| 1787523068 | 24.44° C | 53% | 1017.1 hPa | 0 mm | - | 37 W/m² | - |
* Rain latest hour (hover to see other rain measurements)
** Current wind speed in m/s (hover to see current wind gust speed)